EW5043 Weather Reports


time (UTC)temp
F
wind
direction
speed
knots
gust
knots
rain 1hr
in
rain 24hr
in
rain mn
in
humidity
%
barometer
mb
20260505153050 73 247 4.3 0.0 0.00 0.00 0.02 51 1000.8
20260505151534 73 248 6.1 0.0 0.00 0.00 0.02 51 1001.0
20260505124600 69 244 7.0 0.0 0.00 0.00 0.02 47 1000.5
20260505123100 68 224 6.1 0.0 0.00 0.00 0.02 42 1000.4
20260505121543 67 198 7.0 0.0 0.00 0.00 0.02 41 1000.5
20260505120135 67 229 7.0 0.0 0.00 0.00 0.02 39 1000.6
20260505114533 66 225 7.8 0.0 0.00 0.00 0.02 38 1000.5
20260505113115 66 219 8.7 0.0 0.00 0.00 0.02 35 1000.4
20260505111505 65 206 7.8 0.0 0.00 0.00 0.02 30 1000.2
20260505110105 64 209 8.7 0.0 0.00 0.00 0.02 25 1000.1
20260505101629 64 205 9.6 0.0 0.00 0.00 0.02 21 999.6
20260505100123 63 204 8.7 0.0 0.00 0.00 0.02 8 999.7
20260505094613 62 199 7.8 0.0 0.00 0.00 0.02 100 999.7
20260505093001 62 203 5.2 0.0 0.00 0.00 0.02 100 999.8
20260505091558 62 198 6.1 0.0 0.00 0.00 0.02 100 1000.1
20260505090054 63 203 6.1 0.0 0.00 0.00 0.02 1 1000.4
20260505084635 62 196 7.8 0.0 0.00 0.00 0.02 100 1000.3
20260505083035 62 202 6.1 0.0 0.00 0.00 0.02 100 1000.3
20260505081514 63 192 5.2 0.0 0.00 0.00 0.02 100 1000.4
20260505080004 65 225 7.0 0.0 0.00 0.00 0.01 28 1000.5
20260505074610 65 218 6.1 0.0 0.00 0.00 0.00 34 1000.6
20260505073053 66 215 6.1 0.0 0.00 0.00 0.00 44 1000.7
20260505071543 67 211 6.1 0.0 0.00 0.00 0.00 49 1000.6
20260505070045 66 234 7.0 0.0 0.00 0.00 0.00 50 1000.4
20260505064538 66 208 6.1 0.0 0.00 0.00 0.00 51 1000.3
20260505063035 66 202 6.1 0.0 0.00 0.00 0.00 52 1000.3
20260505061629 66 229 6.1 0.0 0.00 0.00 0.00 53 1000.2
20260505060018 66 207 6.1 0.0 0.00 0.00 0.00 52 1000.3
20260505054518 66 209 7.0 0.0 0.00 0.00 0.00 52 1000.2
20260505053104 66 202 5.2 0.0 0.00 0.00 0.00 52 1000.2
20260505051558 67 196 5.2 0.0 0.00 0.00 0.00 50 1000.4
20260505041627 63 198 2.6 0.0 0.00 0.00 0.00 51 1000.6
20260505040017 60 206 3.5 0.0 0.00 0.00 0.00 44 1000.4
20260505034508 60 201 3.5 0.0 0.00 0.00 0.00 43 1000.5
20260505033059 61 204 2.6 0.0 0.00 0.00 0.00 51 1000.4
20260505031550 58 203 2.6 0.0 0.00 0.00 0.00 35 1000.6
20260505030043 58 203 2.6 0.0 0.00 0.00 0.00 5 1000.6
20260505024552 60 203 1.7 0.0 0.00 0.00 0.00 35 1000.7
20260505023027 61 203 1.7 0.0 0.00 0.00 0.00 51 1000.8
20260505021528 61 203 1.7 0.0 0.00 0.00 0.00 54 1001.0
20260505020005 62 237 2.6 0.0 0.00 0.00 0.00 55 1001.0
20260505014555 64 279 0.0 0.0 0.00 0.00 0.00 46 1000.9
20260505013045 64 279 0.9 0.0 0.00 0.00 0.00 46 1000.9
20260505011638 63 279 0.0 0.0 0.00 0.00 0.00 49 1000.9
20260505010028 64 279 0.0 0.0 0.00 0.00 0.00 52 1000.7
20260505004627 65 279 0.0 0.0 0.00 0.00 0.00 46 1000.8
20260505003010 66 279 0.0 0.0 0.00 0.00 0.00 43 1000.7
20260505001602 68 279 0.9 0.0 0.00 0.00 0.00 45 1000.8
20260505000051 70 279 0.9 0.0 0.00 0.00 0.00 40 1000.7
20260504234543 71 279 1.7 0.0 0.00 0.00 0.00 38 1000.7
20260504233041 73 279 0.9 0.0 0.00 0.00 0.00 35 1000.5
20260504231624 72 279 0.9 0.0 0.00 0.00 0.00 40 1000.5
20260504230115 72 279 0.9 0.0 0.00 0.00 0.00 38 1000.3
20260504224508 71 279 0.0 0.0 0.00 0.00 0.00 40 1000.4
20260504223102 70 349 0.0 0.0 0.00 0.00 0.00 43 1000.7
20260504221549 70 349 0.9 0.0 0.00 0.00 0.00 44 1000.8
20260504220141 69 349 1.7 0.0 0.00 0.00 0.00 43 1000.8
20260504214528 69 344 0.9 0.0 0.00 0.00 0.00 43 1000.9
20260504213022 69 344 1.7 0.0 0.00 0.00 0.00 44 1001.1
20260504211610 69 344 1.7 0.0 0.00 0.00 0.00 44 1001.1
20260504210104 68 344 0.9 0.0 0.00 0.00 0.00 47 1001.3
20260504204602 67 344 1.7 0.0 0.00 0.00 0.00 47 1001.4
20260504203043 66 344 1.7 0.0 0.00 0.00 0.00 49 1001.6
20260504201532 66 323 0.9 0.0 0.00 0.00 0.00 48 1001.7
20260504200022 66 323 0.9 0.0 0.00 0.00 0.00 49 1001.9
20260504194616 65 323 1.7 0.0 0.00 0.00 0.00 50 1002.1
20260504191556 64 319 0.9 0.0 0.00 0.00 0.00 52 1002.4
20260504184539 63 319 1.7 0.0 0.00 0.00 0.00 53 1002.8
20260504183032 62 316 0.9 0.0 0.00 0.00 0.00 53 1003.0
20260504181522 62 315 1.7 0.0 0.00 0.00 0.00 52 1003.0
20260504180010 61 313 1.7 0.0 0.00 0.00 0.00 51 1003.0
20260504174501 63 340 2.6 0.0 0.00 0.00 0.00 54 1003.4
20260504173055 65 304 4.3 0.0 0.00 0.00 0.00 52 1003.4
20260504171644 66 309 5.2 0.0 0.00 0.00 0.00 50 1003.4